Location: Unspecified
(40.7945°N, 0.0000°E)
Time: 11:05:55
(UTC+00:00)

deb Explorer IX - Pass Details

Date: 27 June 2021
Orbit: 542 x 1095 km, 38.8° (Epoch: 27 July)

Event Time Altitude Azimuth Distance (km) Brightness Sun altitude
Exits shadow 02:33:15 24° 179° (S) 1,415 ? -17.0°
Maximum altitude 02:34:26 26° 155° (SSE) 1,297 ? -16.9°
Drops below altitude 10° 02:38:16 10° 98° (E) 1,979 ? -16.5°
Sets 02:40:43 0° 86° (E) 2,820 ? -16.2°
